Schneifelwetter: Wetterstation Hallschlag, 537 m . NN
Wetterdaten: Montag, 20.11.2006
Datum Zeit Temp. A. Temp. 2 Feuchte A. Luftdruck Regen Wind Richtung Richtung Sonnenschein Helligkeit T Regen Taupunkt Windchill
20.11.2006 00:00 2,1 C 1,9 C 93 % 1018 hPa 0,0 l/m 15,6 km/h (3 Bft) W-SW22.5 250 0 min 0 lux 0,00 min 1,1 C -4,8 C
20.11.2006 00:15 2,1 C 1,9 C 93 % 1018 hPa 0,0 l/m 32,7 km/h (5 Bft) W-SW45 250 0 min 0 lux 0,00 min 1,1 C -11,2 C
20.11.2006 00:30 2,1 C 1,9 C 94 % 1018 hPa 0,0 l/m 38,8 km/h (5 Bft) W45 260 0 min 0 lux 0,00 min 1,2 C -12,6 C
20.11.2006 00:45 1,9 C 1,7 C 94 % 1018 hPa 0,0 l/m 33,1 km/h (5 Bft) SW45 235 0 min 0 lux 0,00 min 1,0 C -11,6 C
20.11.2006 01:00 1,8 C 1,6 C 94 % 1018 hPa 0,0 l/m 33,5 km/h (5 Bft) W-SW45 250 0 min 0 lux 0,00 min 0,9 C -11,8 C
20.11.2006 01:15 1,9 C 1,7 C 94 % 1018 hPa 0,0 l/m 28,3 km/h (4 Bft) W-SW22.5 255 0 min 0 lux 0,00 min 1,0 C -10,2 C
20.11.2006 01:30 1,9 C 1,7 C 94 % 1018 hPa 0,0 l/m 25,5 km/h (4 Bft) SW45 235 0 min 0 lux 0,00 min 1,0 C -9,3 C
20.11.2006 01:45 2,0 C 1,8 C 94 % 1018 hPa 0,0 l/m 33,1 km/h (5 Bft) W-SW22.5 250 0 min 0 lux 0,00 min 1,1 C -11,4 C
20.11.2006 02:00 2,2 C 1,9 C 94 % 1018 hPa 0,0 l/m 31,6 km/h (5 Bft) W-SW45 240 0 min 0 lux 0,00 min 1,3 C -10,8 C
20.11.2006 02:15 2,3 C 2,1 C 94 % 1018 hPa 0,0 l/m 35,5 km/h (5 Bft) W-SW45 255 0 min 0 lux 0,00 min 1,4 C -11,6 C
20.11.2006 02:30 2,3 C 2,1 C 94 % 1018 hPa 0,0 l/m 31,3 km/h (5 Bft) W-SW45 250 0 min 0 lux 0,00 min 1,4 C -10,5 C
20.11.2006 02:45 2,3 C 2,2 C 94 % 1018 hPa 0,0 l/m 22,4 km/h (4 Bft) SW45 225 0 min 0 lux 0,00 min 1,4 C -7,6 C
20.11.2006 03:00 2,4 C 2,3 C 94 % 1018 hPa 0,0 l/m 25,0 km/h (4 Bft) S-SW45 210 0 min 0 lux 0,00 min 1,5 C -8,5 C
20.11.2006 03:15 2,6 C 2,4 C 94 % 1017 hPa 0,0 l/m 31,2 km/h (5 Bft) S-SW67.5 205 0 min 0 lux 0,00 min 1,7 C -10,1 C
20.11.2006 03:30 2,7 C 2,6 C 94 % 1017 hPa 0,0 l/m 23,1 km/h (4 Bft) SW22.5 225 0 min 0 lux 0,00 min 1,8 C -7,4 C
20.11.2006 03:45 2,9 C 2,6 C 94 % 1017 hPa 0,0 l/m 23,0 km/h (4 Bft) SW22.5 225 0 min 0 lux 0,00 min 2,0 C -7,1 C
20.11.2006 04:00 3,0 C 2,8 C 94 % 1017 hPa 0,0 l/m 18,5 km/h (3 Bft) S22.5 190 0 min 0 lux 0,00 min 2,1 C -5,1 C
20.11.2006 04:15 3,1 C 2,9 C 94 % 1017 hPa 0,0 l/m 27,6 km/h (4 Bft) S-SW45 210 0 min 0 lux 0,00 min 2,2 C -8,4 C
20.11.2006 04:30 3,1 C 3,0 C 93 % 1016 hPa 0,0 l/m 22,0 km/h (4 Bft) SW45 220 0 min 0 lux 0,00 min 2,1 C -6,4 C
20.11.2006 04:45 3,2 C 3,0 C 93 % 1016 hPa 0,0 l/m 30,5 km/h (5 Bft) S-SW45 210 0 min 0 lux 0,00 min 2,2 C -9,0 C
20.11.2006 05:00 3,2 C 3,0 C 93 % 1016 hPa 0,0 l/m 27,6 km/h (4 Bft) SW45 230 0 min 0 lux 0,00 min 2,2 C -8,2 C
20.11.2006 05:15 3,2 C 3,0 C 92 % 1016 hPa 0,0 l/m 26,6 km/h (4 Bft) SW45 225 0 min 0 lux 0,00 min 2,0 C -7,9 C
20.11.2006 05:30 3,2 C 3,0 C 92 % 1016 hPa 0,0 l/m 36,2 km/h (5 Bft) S-SW45 205 0 min 0 lux 0,00 min 2,0 C -10,4 C
20.11.2006 05:45 3,2 C 3,0 C 91 % 1016 hPa 0,0 l/m 35,0 km/h (5 Bft) SW45 230 0 min 0 lux 0,00 min 1,9 C -10,2 C
20.11.2006 06:00 3,1 C 2,8 C 91 % 1016 hPa 0,0 l/m 38,4 km/h (5 Bft) SW45 225 0 min 0 lux 0,00 min 1,8 C -11,0 C
20.11.2006 06:15 3,0 C 2,8 C 91 % 1016 hPa 0,0 l/m 38,7 km/h (5 Bft) SW22.5 225 0 min 0 lux 0,00 min 1,7 C -11,2 C
20.11.2006 06:30 3,0 C 2,8 C 91 % 1015 hPa 0,0 l/m 31,7 km/h (5 Bft) SW67.5 225 0 min 0 lux 0,00 min 1,7 C -9,6 C
20.11.2006 06:45 3,0 C 2,8 C 90 % 1015 hPa 0,0 l/m 34,4 km/h (5 Bft) SW45 220 0 min 0 lux 0,00 min 1,5 C -10,3 C
20.11.2006 07:00 3,0 C 2,8 C 90 % 1015 hPa 0,0 l/m 35,3 km/h (5 Bft) SW45 225 0 min 0 lux 0,00 min 1,5 C -10,5 C
20.11.2006 07:15 3,1 C 2,9 C 90 % 1015 hPa 0,0 l/m 30,6 km/h (5 Bft) SW45 215 0 min 0 lux 0,00 min 1,6 C -9,2 C
20.11.2006 07:30 3,0 C 2,8 C 90 % 1015 hPa 0,0 l/m 28,1 km/h (4 Bft) SW45 225 0 min 0 lux 0,00 min 1,5 C -8,6 C
20.11.2006 07:45 3,1 C 2,7 C 90 % 1015 hPa 0,0 l/m 31,3 km/h (5 Bft) SW45 225 0 min 91 lux 0,00 min 1,6 C -9,4 C
20.11.2006 08:00 3,1 C 2,8 C 91 % 1015 hPa 0,0 l/m 31,3 km/h (5 Bft) SW45 230 0 min 508 lux 0,00 min 1,8 C -9,4 C
20.11.2006 08:15 3,1 C 2,8 C 91 % 1015 hPa 0,0 l/m 40,1 km/h (6 Bft) SW45 235 0 min 771 lux 0,00 min 1,8 C -11,4 C
20.11.2006 08:30 3,1 C 2,8 C 91 % 1015 hPa 0,0 l/m 35,5 km/h (5 Bft) SW45 225 0 min 802 lux 0,00 min 1,8 C -10,4 C
20.11.2006 08:45 3,1 C 2,9 C 91 % 1014 hPa 0,0 l/m 37,3 km/h (5 Bft) SW45 230 0 min 1,39 klux 0,00 min 1,8 C -10,8 C
20.11.2006 09:00 3,2 C 3,0 C 91 % 1014 hPa 0,0 l/m 35,6 km/h (5 Bft) SW67.5 235 0 min 3,19 klux 0,00 min 1,9 C -10,3 C
20.11.2006 09:15 3,5 C 3,2 C 90 % 1014 hPa 0,0 l/m 38,7 km/h (5 Bft) SW45 225 0 min 4,70 klux 0,00 min 2,0 C -10,5 C
20.11.2006 09:30 3,5 C 3,2 C 89 % 1014 hPa 0,0 l/m 34,7 km/h (5 Bft) SW45 235 0 min 5,16 klux 0,00 min 1,9 C -9,7 C
20.11.2006 09:45 3,5 C 3,3 C 89 % 1014 hPa 0,0 l/m 34,9 km/h (5 Bft) W-SW45 245 0 min 6,54 klux 0,00 min 1,9 C -9,7 C
20.11.2006 10:00 3,7 C 3,4 C 89 % 1014 hPa 0,0 l/m 32,9 km/h (5 Bft) SW45 215 0 min 7,25 klux 0,00 min 2,1 C -8,9 C
20.11.2006 10:15 3,9 C 3,6 C 89 % 1014 hPa 0,0 l/m 38,9 km/h (6 Bft) SW45 225 0 min 9,3 klux 0,00 min 2,3 C -9,9 C
20.11.2006 10:30 4,1 C 3,9 C 89 % 1014 hPa 0,0 l/m 39,1 km/h (6 Bft) W-SW45 240 0 min 12,4 klux 0,00 min 2,5 C -9,7 C
20.11.2006 10:45 4,3 C 4,0 C 88 % 1014 hPa 0,0 l/m 32,0 km/h (5 Bft) SW45 225 0 min 12,3 klux 0,00 min 2,5 C -7,9 C
20.11.2006 11:00 4,2 C 4,0 C 88 % 1014 hPa 0,0 l/m 39,1 km/h (6 Bft) SW67.5 230 0 min 10,7 klux 0,00 min 2,4 C -9,5 C
20.11.2006 11:15 4,3 C 4,2 C 88 % 1014 hPa 0,0 l/m 41,3 km/h (6 Bft) SW45 215 0 min 13,7 klux 0,00 min 2,5 C -9,8 C
20.11.2006 11:30 4,7 C 4,6 C 87 % 1013 hPa 0,0 l/m 33,5 km/h (5 Bft) SW67.5 220 0 min 23,8 klux 0,00 min 2,7 C -7,7 C
20.11.2006 11:45 5,3 C 5,5 C 86 % 1013 hPa 0,0 l/m 36,5 km/h (5 Bft) S-SW45 210 0 min 38,0 klux 0,00 min 3,2 C -7,4 C
20.11.2006 12:00 4,9 C 5,2 C 84 % 1013 hPa 0,0 l/m 33,9 km/h (5 Bft) SW45 215 0 min 15,2 klux 0,00 min 2,4 C -7,5 C
20.11.2006 12:15 5,1 C 5,0 C 84 % 1013 hPa 0,0 l/m 38,7 km/h (5 Bft) S-SW45 205 0 min 13,5 klux 0,00 min 2,6 C -8,1 C
20.11.2006 12:30 5,1 C 5,0 C 84 % 1012 hPa 0,0 l/m 36,7 km/h (5 Bft) SW45 230 0 min 11,7 klux 0,00 min 2,6 C -7,8 C
20.11.2006 12:45 5,2 C 5,0 C 85 % 1012 hPa 0,0 l/m 35,1 km/h (5 Bft) S-SW67.5 200 0 min 15,3 klux 0,00 min 2,9 C -7,3 C
20.11.2006 13:00 5,4 C 5,4 C 85 % 1012 hPa 0,0 l/m 31,1 km/h (5 Bft) S-SW67.5 205 0 min 25,2 klux 0,00 min 3,1 C -6,1 C
20.11.2006 13:15 5,7 C 5,7 C 83 % 1012 hPa 0,0 l/m 43,2 km/h (6 Bft) S-SW67.5 210 0 min 29,5 klux 0,00 min 3,0 C -8,0 C
20.11.2006 13:30 5,6 C 5,6 C 84 % 1011 hPa 0,0 l/m 37,2 km/h (5 Bft) S-SW45 205 0 min 19,0 klux 0,00 min 3,1 C -7,1 C
20.11.2006 13:45 5,5 C 5,4 C 83 % 1011 hPa 0,0 l/m 39,2 km/h (6 Bft) S-SW45 205 0 min 17,9 klux 0,00 min 2,8 C -7,6 C
20.11.2006 14:00 5,2 C 5,2 C 84 % 1010 hPa 0,0 l/m 39,8 km/h (6 Bft) S-SW67.5 195 0 min 14,3 klux 0,00 min 2,7 C -8,2 C
20.11.2006 14:15 5,4 C 5,3 C 84 % 1010 hPa 0,0 l/m 31,0 km/h (5 Bft) S-SW45 195 0 min 14,4 klux 0,00 min 2,9 C -6,1 C
20.11.2006 14:30 5,2 C 5,1 C 85 % 1010 hPa 0,0 l/m 33,9 km/h (5 Bft) SW45 215 0 min 14,0 klux 0,00 min 2,9 C -7,0 C
20.11.2006 14:45 5,1 C 5,1 C 85 % 1010 hPa 0,0 l/m 34,2 km/h (5 Bft) S-SW45 200 0 min 11,9 klux 0,00 min 2,8 C -7,2 C
20.11.2006 15:00 5,2 C 5,0 C 85 % 1010 hPa 0,0 l/m 33,7 km/h (5 Bft) S-SW45 195 0 min 10,4 klux 0,00 min 2,9 C -7,0 C
20.11.2006 15:15 4,9 C 4,8 C 85 % 1009 hPa 0,0 l/m 35,5 km/h (5 Bft) S67.5 190 0 min 8,82 klux 0,00 min 2,6 C -7,8 C
20.11.2006 15:30 4,8 C 4,6 C 86 % 1009 hPa 0,0 l/m 35,9 km/h (5 Bft) S-SW45 195 0 min 2,66 klux 0,00 min 2,7 C -8,0 C
20.11.2006 15:45 4,7 C 4,4 C 87 % 1009 hPa 0,0 l/m 34,1 km/h (5 Bft) S-SW67.5 200 0 min 1,82 klux 0,00 min 2,7 C -7,8 C
20.11.2006 16:00 4,6 C 4,4 C 89 % 1009 hPa 0,0 l/m 31,5 km/h (5 Bft) S-SW45 200 0 min 1,95 klux 0,00 min 2,9 C -7,3 C
20.11.2006 16:15 4,6 C 4,3 C 89 % 1008 hPa 0,0 l/m 33,5 km/h (5 Bft) S45 190 0 min 1,20 klux 0,00 min 2,9 C -7,8 C
20.11.2006 16:30 4,6 C 4,3 C 89 % 1008 hPa 0,0 l/m 32,0 km/h (5 Bft) S45 190 0 min 1,15 klux 0,00 min 2,9 C -7,4 C
20.11.2006 16:45 4,5 C 4,2 C 90 % 1008 hPa 0,0 l/m 37,2 km/h (5 Bft) SW45 215 0 min 355 lux 0,00 min 3,0 C -8,7 C
20.11.2006 17:00 4,4 C 4,1 C 90 % 1008 hPa 0,0 l/m 33,1 km/h (5 Bft) S45 185 0 min 125 lux 0,00 min 2,9 C -8,0 C
20.11.2006 17:15 4,3 C 4,0 C 91 % 1007 hPa 0,0 l/m 35,7 km/h (5 Bft) S67.5 180 0 min 21 lux 0,00 min 3,0 C -8,7 C
20.11.2006 17:30 4,3 C 3,9 C 91 % 1007 hPa 0,3 l/m 36,8 km/h (5 Bft) S-SW45 205 0 min 0 lux 15,00 min 3,0 C -8,9 C
20.11.2006 17:45 4,2 C 3,9 C 92 % 1007 hPa 0,0 l/m 34,8 km/h (5 Bft) SW45 215 0 min 0 lux 0,00 min 3,0 C -8,7 C
20.11.2006 18:00 4,2 C 3,9 C 92 % 1007 hPa 0,0 l/m 35,5 km/h (5 Bft) S-SW67.5 205 0 min 0 lux 0,00 min 3,0 C -8,8 C
20.11.2006 18:15 4,2 C 3,9 C 92 % 1007 hPa 0,3 l/m 34,1 km/h (5 Bft) S-SW67.5 205 0 min 0 lux 15,00 min 3,0 C -8,5 C
20.11.2006 18:30 4,2 C 3,9 C 92 % 1007 hPa 0,0 l/m 33,6 km/h (5 Bft) S-SW67.5 210 0 min 0 lux 0,00 min 3,0 C -8,4 C
20.11.2006 18:45 4,2 C 3,9 C 92 % 1007 hPa 0,0 l/m 37,3 km/h (5 Bft) S-SW45 210 0 min 0 lux 0,00 min 3,0 C -9,2 C
20.11.2006 19:00 4,2 C 3,9 C 92 % 1006 hPa 0,0 l/m 41,1 km/h (6 Bft) SW45 215 0 min 0 lux 0,00 min 3,0 C -9,9 C
20.11.2006 19:15 4,3 C 4,1 C 93 % 1006 hPa 0,3 l/m 36,9 km/h (5 Bft) SW45 225 0 min 0 lux 15,00 min 3,3 C -9,0 C
20.11.2006 19:30 4,3 C 4,1 C 93 % 1006 hPa 0,3 l/m 27,9 km/h (4 Bft) S45 190 0 min 0 lux 15,00 min 3,3 C -6,8 C
20.11.2006 19:45 4,3 C 4,1 C 93 % 1006 hPa 0,0 l/m 31,6 km/h (5 Bft) S-SW45 210 0 min 0 lux 0,00 min 3,3 C -7,8 C
20.11.2006 20:00 4,4 C 4,2 C 93 % 1006 hPa 0,3 l/m 33,2 km/h (5 Bft) SW45 215 0 min 0 lux 15,00 min 3,4 C -8,0 C
20.11.2006 20:15 4,5 C 4,2 C 93 % 1005 hPa 0,0 l/m 30,0 km/h (5 Bft) S-SW45 200 0 min 0 lux 0,00 min 3,5 C -7,1 C
20.11.2006 20:30 4,5 C 4,3 C 93 % 1005 hPa 0,0 l/m 29,7 km/h (5 Bft) SW45 230 0 min 0 lux 0,00 min 3,5 C -7,0 C
20.11.2006 20:45 4,5 C 4,3 C 93 % 1005 hPa 0,0 l/m 24,8 km/h (4 Bft) S-SW45 205 0 min 0 lux 0,00 min 3,5 C -5,6 C
20.11.2006 21:00 4,5 C 4,3 C 93 % 1005 hPa 0,0 l/m 31,5 km/h (5 Bft) SW45 215 0 min 0 lux 0,00 min 3,5 C -7,5 C
20.11.2006 21:15 4,5 C 4,4 C 94 % 1005 hPa 0,3 l/m 30,3 km/h (5 Bft) S-SW22.5 200 0 min 0 lux 15,00 min 3,6 C -7,2 C
20.11.2006 21:30 4,5 C 4,4 C 94 % 1004 hPa 0,0 l/m 27,7 km/h (4 Bft) S45 190 0 min 0 lux 0,00 min 3,6 C -6,4 C
20.11.2006 21:45 4,5 C 4,4 C 94 % 1004 hPa 0,0 l/m 25,8 km/h (4 Bft) SW45 220 0 min 0 lux 0,00 min 3,6 C -5,9 C
20.11.2006 22:00 4,6 C 4,4 C 94 % 1004 hPa 0,0 l/m 26,3 km/h (4 Bft) S-SW45 205 0 min 0 lux 0,00 min 3,7 C -5,9 C
20.11.2006 22:15 4,6 C 4,4 C 94 % 1004 hPa 0,3 l/m 22,0 km/h (4 Bft) S-SW45 200 0 min 0 lux 15,00 min 3,7 C -4,5 C
20.11.2006 22:30 4,6 C 4,5 C 94 % 1003 hPa 0,3 l/m 23,4 km/h (4 Bft) S-SW45 210 0 min 0 lux 15,00 min 3,7 C -5,0 C
20.11.2006 22:45 4,7 C 4,5 C 94 % 1003 hPa 0,9 l/m 25,6 km/h (4 Bft) S-SW45 210 0 min 0 lux 15,00 min 3,8 C -5,5 C
20.11.2006 23:00 4,7 C 4,6 C 94 % 1003 hPa 0,6 l/m 34,6 km/h (5 Bft) S-SW45 205 0 min 0 lux 15,00 min 3,8 C -7,9 C
20.11.2006 23:15 4,8 C 4,7 C 94 % 1002 hPa 0,0 l/m 28,0 km/h (4 Bft) S-SW22.5 195 0 min 0 lux 0,00 min 3,9 C -6,1 C
20.11.2006 23:30 4,9 C 4,8 C 94 % 1002 hPa 0,0 l/m 33,5 km/h (5 Bft) S22.5 185 0 min 0 lux 0,00 min 4,0 C -7,4 C
20.11.2006 23:45 5,2 C 4,9 C 95 % 1002 hPa 0,3 l/m 28,1 km/h (4 Bft) S45 175 0 min 0 lux 15,00 min 4,5 C -5,6 C
_ Min-Zeit 01:00 01:00 13:15 23:15 - 00:00 - - - - - 01:00 00:30
Minimum _ 1,8 C 1,6 C 83 % 1002 hPa - 15,6 km/h (3 Bft) - - - - - 0,9 C -12,6 C
_ Max-Zeit 13:15 13:15 23:45 00:00 22:45 13:15 - - 00:00 11:45 17:30 23:45 22:15
Maximum _ 5,7 C 5,7 C 95 % 1018 hPa 0,9 l/m 43,2 km/h
S-SW (6 Bft)
- - 0 min 38,0 klux 15,00 min 4,5 C -4,5 C
Durchschnitt _ 3,9 C 3,7 C 91 % 1012 hPa #4,0 l/m 32,5 km/h (5 Bft) SW - #0 min. 3,97 klux #2:45 h 2,5 C -8,4 C